FW3743 Weather Reports


Display with metric or nautical units.
time (UTC)temp
F
wind
direction
speed
MPH
gust
MPH
rain 1hr
in
rain 24hr
in
rain mn
in
humidity
%
barometer
mb
20260505204433 72 0.0 0.0 0.00 0.04 0.04 68 1004.9
20260505203434 72 0.0 0.0 0.00 0.04 0.04 68 1004.7
20260505202433 71 274 0.0 1.0 0.00 0.04 0.04 69 1004.7
20260505201434 72 0.0 0.0 0.00 0.04 0.04 71 1004.9
20260505200432 72 273 0.0 2.0 0.00 0.04 0.04 71 1005.0
20260505195434 72 239 0.0 5.0 0.00 0.04 0.04 74 1005.2
20260505194433 72 0.0 0.0 0.00 0.04 0.04 73 1005.3
20260505193434 71 300 0.0 2.0 0.00 0.04 0.04 75 1005.3
20260505192433 70 296 1.0 10.0 0.00 0.04 0.04 75 1005.5
20260505191434 69 315 0.0 8.0 0.00 0.04 0.04 77 1005.4
20260505190433 68 309 1.0 7.0 0.00 0.04 0.04 80 1005.3
20260505185434 66 272 0.0 2.0 0.03 0.04 0.04 82 1005.4
20260505184433 63 0.0 0.0 0.03 0.04 0.04 87 1005.7
20260505183434 64 0.0 0.0 0.03 0.04 0.04 85 1006.0
20260505182433 64 310 0.0 2.0 0.03 0.04 0.04 86 1006.1
20260505181434 63 0.0 0.0 0.03 0.04 0.04 87 1005.5
20260505180613 65 295 0.0 7.0 0.03 0.03 0.03 82 1005.6
20260505175454 69 337 0.0 4.0 0.00 0.00 0.00 70 1004.8
20260505174433 69 0.0 0.0 0.00 0.00 0.00 69 1004.8
20260505173434 71 335 0.0 5.0 0.00 0.00 0.00 66 1004.7
20260505172453 72 254 0.0 4.0 0.00 0.00 0.00 61 1004.4
20260505171434 73 251 0.0 8.0 0.00 0.00 0.00 58 1004.3
20260505170433 73 0.0 0.0 0.00 0.00 0.00 59 1004.3
20260505165434 73 250 0.0 10.0 0.00 0.00 0.00 58 1004.4
20260505164453 73 270 0.0 2.0 0.00 0.00 0.00 58 1004.5
20260505163434 73 255 0.0 7.0 0.00 0.00 0.00 58 1004.0
20260505162432 74 289 0.0 12.0 0.00 0.00 0.00 58 1004.5
20260505161434 73 265 1.0 7.0 0.00 0.00 0.00 58 1004.3
20260505160433 73 281 4.0 12.0 0.00 0.00 0.00 58 1004.0
20260505152432 73 269 0.0 7.0 0.00 0.00 0.00 60 1004.6
20260505151434 73 311 3.0 12.0 0.00 0.00 0.00 59 1004.4
20260505150613 73 261 1.0 10.0 0.00 0.00 0.00 59 1004.7
20260505140433 73 0.0 0.0 0.00 0.00 0.00 61 1004.1
20260505124433 70 0.0 0.0 0.00 0.00 0.00 65 1004.2
20260505123433 70 285 1.0 11.0 0.00 0.00 0.00 63 1004.1
20260505122433 70 303 0.0 5.0 0.00 0.00 0.00 64 1004.2
20260505121433 69 294 1.0 11.0 0.00 0.00 0.00 64 1004.5
20260505120433 68 278 1.0 8.0 0.00 0.00 0.00 65 1004.2
20260505115433 67 284 0.0 5.0 0.00 0.00 0.00 67 1004.1
20260505114433 66 0.0 0.0 0.00 0.00 0.00 68 1004.0
20260505113433 66 201 0.0 2.0 0.00 0.00 0.00 68 1004.1
20260505112453 65 0.0 0.0 0.00 0.00 0.00 70 1004.0
20260505111433 65 245 0.0 8.0 0.00 0.00 0.00 70 1004.0
20260505110433 65 248 0.0 5.0 0.00 0.00 0.00 70 1003.9
20260505101433 60 0.0 0.0 0.00 0.00 0.00 82 1003.8
20260505100453 58 0.0 0.0 0.00 0.00 0.00 87 1004.0
20260505095433 57 0.0 0.0 0.00 0.00 0.00 91 1003.8
20260505094453 57 0.0 0.0 0.00 0.00 0.00 91 1003.9
20260505093432 58 0.0 0.0 0.00 0.00 0.00 92 1003.9
20260505092533 59 0.0 0.0 0.00 0.00 0.00 91 1003.9
20260505091432 59 0.0 0.0 0.00 0.00 0.00 90 1004.0
20260505090434 59 0.0 0.0 0.00 0.00 0.00 90 1004.0
20260505085433 60 0.0 0.0 0.00 0.00 0.00 89 1004.0
20260505084434 60 0.0 0.0 0.00 0.00 0.00 88 1004.0
20260505083432 62 303 0.0 5.0 0.00 0.00 0.00 84 1004.0
20260505082434 63 290 0.0 11.0 0.00 0.00 0.00 77 1004.5
20260505081433 63 290 2.0 15.0 0.00 0.00 0.00 73 1004.4
20260505080433 64 324 0.0 1.0 0.00 0.00 0.00 67 1004.4
20260505075453 64 156 0.0 2.0 0.00 0.00 0.00 68 1004.4
20260505074434 64 0.0 0.0 0.00 0.00 0.00 68 1004.2
20260505073432 63 274 0.0 1.0 0.00 0.00 0.00 69 1004.0
20260505072434 63 0.0 0.0 0.00 0.00 0.00 71 1004.3
20260505071433 63 0.0 0.0 0.00 0.00 0.00 71 1004.2
20260505070434 63 0.0 0.0 0.00 0.00 0.00 71 1004.3
20260505065433 64 0.0 0.0 0.00 0.00 0.00 70 1003.8
20260505064434 64 286 0.0 10.0 0.00 0.00 0.00 68 1004.0
20260505063433 65 280 0.0 5.0 0.00 0.00 0.00 65 1004.0
20260505062433 65 249 1.0 10.0 0.00 0.00 0.00 62 1004.0
20260505061432 66 278 0.0 2.0 0.00 0.00 0.00 61 1004.2
20260505060433 66 30 0.0 7.0 0.00 0.00 0.00 59 1004.1
20260505055433 66 265 0.0 8.0 0.00 0.00 0.00 57 1004.1
20260505054434 66 275 0.0 4.0 0.00 0.00 0.00 57 1004.0
20260505053433 65 30 0.0 4.0 0.00 0.00 0.00 58 1004.2
20260505052433 64 0.0 0.0 0.00 0.00 0.00 57 1004.1
20260505051432 65 0.0 0.0 0.00 0.00 0.00 57 1004.3
20260505050434 64 0.0 0.0 0.00 0.00 0.00 58 1004.2
20260505041433 65 0.0 0.0 0.00 0.00 0.00 54 1004.0
20260505040454 64 0.0 0.0 0.00 0.00 0.00 54 1004.1
20260505035433 65 0.0 0.0 0.00 0.00 0.00 54 1004.1
20260505034434 65 0.0 0.0 0.00 0.00 0.00 53 1004.0
20260505033433 65 0.0 0.0 0.00 0.00 0.00 52 1004.0
20260505032454 65 0.0 0.0 0.00 0.00 0.00 53 1004.0
20260505031433 65 0.0 0.0 0.00 0.00 0.00 53 1003.9
20260505030514 65 0.0 0.0 0.00 0.00 0.00 53 1003.9
20260505025433 64 0.0 0.0 0.00 0.00 0.00 53 1004.0
20260505024433 64 0.0 0.0 0.00 0.00 0.00 53 1004.0
20260505023433 64 0.0 0.0 0.00 0.00 0.00 53 1004.1
20260505022434 63 0.0 0.0 0.00 0.00 0.00 53 1004.3
20260505021433 62 0.0 0.0 0.00 0.00 0.00 55 1004.1
20260505020434 62 0.0 0.0 0.00 0.00 0.00 55 1004.3
20260505015433 62 0.0 0.0 0.00 0.00 0.00 56 1004.1
20260505014434 62 0.0 0.0 0.00 0.01 0.00 55 1004.2
20260505013433 61 0.0 0.0 0.00 0.01 0.00 58 1004.2
20260505012434 59 0.0 0.0 0.00 0.01 0.00 66 1004.2
20260505011434 58 0.0 0.0 0.00 0.01 0.00 70 1004.3
20260505010454 58 0.0 0.0 0.00 0.01 0.00 67 1004.2
20260505005433 59 0.0 0.0 0.00 0.01 0.00 65 1004.2
20260505004454 60 0.0 0.0 0.00 0.01 0.00 63 1004.2
20260505003453 61 0.0 0.0 0.00 0.01 0.00 60 1004.2
20260505002454 63 0.0 0.0 0.00 0.01 0.00 56 1004.0
20260505001433 65 0.0 0.0 0.00 0.01 0.00 51 1004.1
20260505000514 67 0.0 0.0 0.00 0.01 0.00 46 1004.0
20260504235433 69 0.0 0.0 0.00 0.01 0.00 43 1004.1
20260504234434 71 0.0 0.0 0.00 0.01 0.00 40 1004.0
20260504233453 71 0.0 0.0 0.00 0.01 0.00 40 1003.7
20260504232434 72 0.0 0.0 0.00 0.01 0.00 38 1003.7
20260504231433 73 0.0 0.0 0.00 0.01 0.00 38 1003.7
20260504230434 74 0.0 0.0 0.00 0.01 0.00 37 1003.7
20260504225433 75 0.0 0.0 0.00 0.01 0.00 38 1004.0
20260504224434 74 0.0 0.0 0.00 0.01 0.00 37 1004.1
20260504223433 75 0.0 0.0 0.00 0.01 0.00 38 1004.1
20260504222434 74 285 0.0 2.0 0.00 0.01 0.00 38 1003.9
20260504221433 74 264 1.0 11.0 0.00 0.01 0.00 38 1004.2
20260504220434 74 312 0.0 8.0 0.00 0.01 0.00 38 1004.0
20260504215433 74 290 0.0 5.0 0.00 0.01 0.00 40 1004.2
20260504214434 74 282 0.0 7.0 0.00 0.01 0.00 40 1004.1
20260504213453 74 265 2.0 7.0 0.00 0.01 0.00 40 1004.4
20260504212433 74 74 2.0 12.0 0.00 0.01 0.00 39 1004.1
20260504211433 73 309 0.0 5.0 0.00 0.01 0.00 40 1004.4
20260504210434 74 272 0.0 8.0 0.00 0.01 0.00 42 1004.2
20260504205433 73 285 1.0 12.0 0.00 0.01 0.00 42 1004.3